Location: Tauranga
(37.6860°S, 176.1670°E)
Time: 20:51:19
(UTC+12:00)

NOSS 3-2 (C) - Pass Details

Date: 24 January 2019
Orbit: 831 x 1381 km, 63.4° (Epoch: 20 April)

Event Time Altitude Azimuth Distance (km) Brightness Sun altitude
Exits shadow 23:03:19 41° 30° (NNE) 1,849 4.4 -23.8°
Maximum altitude 23:05:15 48° 65° (ENE) 1,680 4.3 -24.0°
Drops below altitude 10° 23:12:40 10° 136° (SE) 3,198 6.3 -24.9°
Sets 23:15:25 0° 141° (SE) 4,093 7.0 -25.2°
